Wetbulb
36.04 36.37 36.55 36.55 36.68 36.91 35.86 35.87 34.68 30.08 27.74 30.99 30.50 33.12 33.37 33.89 35.76 32.85 33.16 38.79 38.32 37.88 36.41 36.67 36.60 36.72 36.86 36.69 36.90 37.21 38.12 38.57 38.73 39.26 40.07 40.63 41.12 41.42
37.58 36.79 36.32 36.17 36.03 36.30 35.51 35.42 34.92 32.42 28.76 31.47 32.02 32.65 33.78 36.18 35.83 32.51 33.71 34.65 36.55 35.11 35.08 35.05 35.22 35.48 35.78 35.42 35.64 36.16 36.76 36.86 37.44 38.00 38.07 38.76 39.27 39.92
36.77 36.52 35.72 35.87 34.76 35.15 35.12 34.49 33.47 32.33 28.57 29.41 31.22 32.33 31.15 30.49 30.86 31.46 31.00 28.69 29.00 33.41 33.69 33.88 33.70 33.88 33.49 33.65 33.79 34.41 34.55 34.93 35.22 35.67 36.65 37.10 37.13 37.36
35.17 34.88 34.41 35.23 33.26 33.92 33.23 31.93 31.19 31.33 29.65 27.78 28.64 28.90 28.00 28.73 28.40 27.13 29.02 29.32 27.38 30.94 31.79 31.72 31.35 31.55 32.16 31.96 32.53 32.65 32.71 32.65 33.57 34.40 34.18 33.84 34.07 35.04
34.20 34.07 33.30 31.97 30.24 30.37 29.91 29.02 29.09 30.26 29.33 27.92 26.27 27.46 26.73 26.85 25.95 26.04 25.72 25.15 27.21 29.16 30.06 29.07 29.70 30.34 30.16 30.53 30.80 30.77 31.19 32.02 32.28 31.53 31.05 31.65 32.50 33.65
31.33 30.63 30.17 28.89 28.17 27.76 27.74 26.93 27.37 26.49 26.94 26.27 25.12 24.46 24.31 24.71 24.29 21.92 21.60 23.55 22.94 26.24 26.29 26.67 27.80 28.50 28.37 28.81 28.69 29.85 30.49 30.03 29.64 29.85 30.31 31.12 30.75 30.84
29.07 28.84 28.45 29.72 30.26 28.53 26.42 25.24 25.29 24.83 24.81 24.24 23.02 22.85 21.45 20.39 19.45 20.83 20.38 20.95 21.92 23.03 21.94 22.56 23.36 23.03 23.61 25.22 26.93 27.90 28.07 28.53 29.11 29.90 30.80 30.12 29.47 29.70
26.28 27.91 28.22 29.53 28.71 28.67 28.29 27.79 26.44 24.50 23.48 22.80 21.96 20.53 19.92 19.99 20.54 19.92 19.27 18.36 16.77 21.67 20.40 19.59 21.01 20.59 21.96 22.96 25.70 26.23 26.88 28.40 29.63 29.88 28.72 28.53 28.27 28.43
26.38 27.20 27.28 27.94 27.36 26.69 27.12 27.74 27.07 27.02 25.67 24.08 21.19 19.90 19.47 20.46 20.50 19.54 19.41 18.53 17.70 20.35 19.49 16.26 16.96 16.64 20.51 22.28 24.10 25.83 27.04 28.75 27.73 27.52 27.42 27.22 27.35 27.22
27.06 27.03 25.56 23.92 24.72 25.14 25.18 24.31 25.33 25.98 24.10 23.45 21.93 21.29 21.41 22.30 22.15 21.46 20.09 19.58 19.27 19.32 19.11 13.31 14.24 13.75 16.88 18.32 23.49 25.40 26.90 26.31 25.96 26.14 26.07 26.13 26.10 26.08
26.47 25.99 24.64 23.46 24.87 26.18 24.41 22.58 20.79 21.02 23.66 24.80 25.13 25.55 25.26 25.74 23.80 20.79 17.73 15.58 11.83 15.34 17.24 15.52 11.48 13.64 8.27 9.63 16.93 24.46 25.22 24.10 24.62 24.64 24.93 24.76 24.96 25.04
24.66 24.73 24.34 22.85 23.44 23.46 21.70 22.82 20.61 18.74 18.83 20.45 21.41 21.83 22.56 22.74 22.64 20.18 18.04 14.18 12.64 7.41 17.24 14.50 10.24 11.92 6.59 8.24 12.92 18.20 18.10 21.61 22.81 22.92 22.80 23.29 23.64 20.74
22.76 22.40 23.42 23.38 22.74 22.24 21.92 20.52 19.29 18.67 18.54 19.23 19.25 18.86 19.46 19.00 18.79 19.43 19.45 17.68 14.34 13.38 18.06 16.46 9.34 10.29 7.69 10.68 11.16 15.30 17.10 16.68 16.60 17.21 20.17 21.11 22.29 22.26
21.35 21.43 21.97 23.07 21.85 21.15 20.24 20.77 20.40 17.84 17.88 15.83 13.16 11.25 13.14 13.22 15.59 17.81 19.22 18.28 18.25 16.80 17.86 17.35 11.00 12.76 11.87 10.52 9.28 8.52 13.53 14.63 15.03 15.00 15.92 18.79 20.54 21.10
20.64 21.22 23.72 22.58 21.24 20.88 21.31 21.03 15.83 14.30 11.30 9.39 9.75 10.68 12.94 13.74 16.97 14.14 14.73 17.83 17.44 17.23 18.04 17.28 15.97 15.13 13.17 9.84 8.65 9.29 9.15 10.91 13.76 14.26 15.05 15.50 14.67 14.82
22.61 21.74 17.94 17.71 13.16 9.89 12.13 15.37 12.47 7.43 8.04 7.23 7.50 10.10 10.33 11.70 13.19 14.08 11.82 12.57 11.33 10.81 15.39 16.30 15.82 14.46 9.92 10.10 10.30 8.26 9.87 7.93 12.22 13.49 13.91 13.56 13.58 14.58
15.50 13.52 11.26 9.67 7.15 4.56 4.70 3.78 3.09 1.53 6.17 1.88 1.80 2.58 6.18 10.81 10.31 11.56 11.58 10.91 9.25 8.51 8.74 11.67 13.48 13.16 12.21 11.01 7.33 8.85 9.20 9.83 11.30 10.90 11.01 9.54 11.79 12.99
9.71 8.19 6.18 5.44 6.36 4.78 2.79 2.86 -0.54 1.87 0.59 -1.79 -4.81 -4.10 0.62 1.46 2.62 6.17 8.54 6.47 6.70 6.94 7.31 7.50 7.72 6.89 7.57 8.94 13.67 8.58 8.62 7.49 8.54 9.80 10.22 7.60 6.72 10.29
6.91 2.61 5.20 6.68 8.41 8.71 8.03 1.93 2.61 -1.43 -4.45 -3.73 -3.54 -4.81 -5.54 -3.76 -3.36 -2.31 -2.16 2.28 5.30 5.41 5.46 6.21 5.88 5.14 1.18 -2.20 1.57 13.06 6.44 6.33 6.86 6.93 6.96 6.59 5.68 7.60
11.70 8.67 9.02 8.34 8.50 8.74 2.46 0.53 -2.82 -4.81 -3.91 -4.45 -6.99 -6.81 -6.81 -3.73 -5.00 -4.81 -4.28 -6.26 -0.45 2.16 1.93 4.11 4.62 4.17 1.45 -0.91 -0.36 3.75 12.05 6.85 5.09 3.43 4.04 6.42 7.87 12.44
8.79 9.04 6.13 5.13 7.19 6.92 3.64 -0.19 -2.15 -4.81 -6.63 -7.35 -6.63 -6.81 -9.35 -8.62 -8.80 -8.44 -9.89 -7.17 -5.92 -0.95 -1.15 -0.58 1.29 4.82 4.87 4.81 -1.21 -0.72 2.80 10.27 9.21 4.96 4.45 3.21 2.66 4.14
13.48 12.81 11.03 8.96 7.12 7.38 2.39 -1.81 -6.99 -7.90 -7.71 -7.90 -9.16 -12.25 -13.15 -9.71 -8.62 -11.34 -13.52 -11.70 -3.55 -2.51 -1.50 -0.09 1.46 1.95 0.33 -0.20 -1.82 -2.87 -1.82 1.15 5.87 8.65 10.80 9.49 3.55 -0.07
6.39 9.42 6.04 6.66 7.35 5.95 6.02 0.83 0.32 -6.63 -4.45 -5.36 -6.81 -4.10 -11.16 -9.89 -10.62 -11.16 -11.16 -8.68 -5.53 -4.66 -4.18 -3.67 -2.78 -1.23 -0.59 -1.46 -3.08 -3.47 -4.19 -3.41 -1.24 -1.38 0.66 9.17 11.43 12.81
MSLP
1019.65 1019.72 1020.04 1020.19 1020.24 1020.04 1020.32 1020.69 1021.24 1023.39 1024.43 1024.76 1024.95 1025.26 1025.20 1025.23 1025.56 1025.61 1025.54 1025.66 1025.44 1025.67 1026.03 1025.72 1025.36 1025.30 1025.16 1024.78 1024.60 1024.42 1024.33 1024.14 1023.71 1023.49 1023.55 1023.48 1023.28 1023.12
1019.79 1020.13 1020.46 1020.56 1020.60 1020.68 1021.62 1021.31 1021.27 1022.08 1023.58 1024.38 1024.67 1024.60 1025.10 1025.47 1025.44 1025.63 1025.65 1025.91 1025.94 1026.29 1025.93 1025.84 1025.89 1025.62 1025.33 1024.99 1024.79 1024.35 1024.28 1024.30 1023.91 1023.33 1023.20 1023.70 1023.38 1023.39
1020.52 1020.27 1020.98 1020.94 1021.37 1021.91 1021.95 1021.83 1021.76 1022.18 1023.50 1024.33 1024.62 1024.88 1025.42 1025.81 1025.85 1025.77 1025.97 1026.17 1026.37 1026.13 1026.15 1026.09 1025.84 1025.65 1025.31 1025.15 1025.05 1024.41 1024.43 1024.31 1024.14 1023.69 1023.57 1023.03 1023.66 1023.56
1021.06 1021.19 1021.33 1021.78 1022.21 1022.33 1022.29 1022.56 1022.40 1022.97 1023.67 1024.30 1024.67 1025.44 1025.98 1026.14 1026.22 1026.10 1026.27 1026.62 1026.73 1026.59 1026.37 1026.03 1025.95 1025.69 1025.42 1025.63 1025.44 1024.57 1024.56 1024.42 1024.19 1023.86 1023.78 1023.42 1023.48 1023.29
1021.45 1021.64 1021.90 1021.91 1022.26 1022.43 1022.72 1022.80 1023.19 1023.52 1024.11 1024.57 1025.06 1025.84 1026.79 1026.77 1026.84 1026.72 1026.64 1026.75 1026.59 1026.63 1026.42 1026.22 1026.19 1026.02 1025.90 1025.63 1025.42 1024.93 1024.42 1024.32 1023.87 1024.16 1023.78 1023.51 1022.89 1023.01
1021.74 1021.98 1022.43 1022.53 1022.34 1022.63 1023.06 1023.48 1023.84 1024.16 1024.40 1025.08 1025.74 1026.28 1026.85 1027.43 1027.52 1027.13 1027.16 1026.84 1026.91 1026.46 1026.41 1026.30 1026.30 1025.85 1025.67 1025.57 1025.46 1024.81 1024.42 1024.20 1024.14 1023.60 1023.40 1023.29 1023.06 1022.84
1022.28 1022.52 1022.60 1022.72 1022.97 1023.03 1023.48 1023.90 1024.21 1024.57 1025.17 1025.62 1026.15 1026.69 1027.34 1027.54 1027.69 1027.70 1028.24 1026.96 1026.71 1026.66 1026.50 1026.42 1026.11 1025.76 1025.36 1025.51 1024.96 1024.72 1024.38 1023.84 1023.45 1022.79 1022.55 1023.03 1022.85 1022.61
1022.37 1022.92 1022.93 1023.34 1023.56 1023.54 1023.69 1023.88 1024.55 1024.89 1025.66 1026.05 1026.63 1026.88 1027.34 1027.99 1028.09 1027.79 1027.87 1027.26 1026.97 1026.93 1026.82 1026.01 1026.10 1025.96 1025.84 1025.33 1024.67 1024.19 1023.55 1023.36 1022.74 1022.31 1022.69 1022.74 1022.34 1022.34
1022.59 1023.12 1023.21 1023.98 1023.98 1024.17 1024.17 1024.34 1024.96 1025.44 1026.05 1026.31 1026.84 1026.82 1026.96 1027.88 1028.02 1027.65 1027.22 1026.93 1027.05 1026.57 1026.54 1026.31 1026.22 1026.27 1025.91 1025.07 1024.25 1023.49 1022.95 1022.79 1022.65 1022.70 1022.77 1022.38 1021.96 1021.85
1022.67 1023.19 1023.75 1024.18 1024.53 1024.57 1024.69 1024.90 1025.51 1025.95 1026.37 1026.49 1026.64 1026.77 1027.62 1027.64 1027.62 1027.07 1026.93 1026.98 1026.65 1026.66 1027.00 1027.32 1026.53 1026.38 1025.48 1024.23 1023.57 1023.08 1022.76 1022.93 1023.03 1022.79 1022.39 1021.87 1021.60 1021.18
1022.96 1023.59 1023.89 1024.35 1024.42 1024.69 1025.05 1025.44 1026.16 1026.65 1026.70 1026.61 1026.75 1027.07 1027.41 1027.23 1027.26 1027.14 1026.81 1026.85 1027.18 1027.09 1027.44 1027.36 1026.61 1025.76 1025.12 1024.10 1023.54 1023.23 1023.24 1023.27 1022.96 1022.63 1022.06 1021.69 1021.15 1020.53
1023.45 1023.89 1024.17 1024.63 1024.94 1025.19 1025.40 1025.80 1026.44 1026.92 1027.06 1027.31 1027.55 1027.76 1027.78 1027.68 1027.52 1027.33 1027.49 1027.83 1027.84 1027.52 1027.02 1026.93 1026.51 1026.31 1025.66 1024.23 1024.10 1023.91 1023.72 1023.35 1022.91 1022.40 1021.77 1021.21 1020.72 1020.09
1023.45 1024.15 1024.47 1024.82 1025.27 1025.51 1025.80 1026.11 1026.65 1027.21 1027.59 1027.80 1028.09 1028.17 1028.10 1028.02 1027.94 1027.78 1027.75 1027.69 1027.62 1027.33 1026.86 1026.81 1026.73 1026.27 1026.56 1025.37 1024.23 1023.89 1023.55 1023.21 1022.67 1021.81 1021.27 1020.86 1020.31 1019.59
1023.70 1024.25 1024.77 1025.12 1025.49 1025.84 1026.29 1026.42 1026.84 1027.41 1027.89 1028.12 1028.47 1028.58 1028.42 1028.24 1028.15 1028.09 1027.76 1027.46 1027.28 1027.18 1026.75 1026.65 1026.63 1026.20 1026.16 1025.49 1024.75 1023.99 1023.49 1022.90 1022.09 1021.27 1020.83 1020.25 1019.63 1018.89
1023.57 1024.20 1024.68 1024.99 1025.50 1025.97 1026.17 1026.45 1027.21 1027.85 1028.26 1028.83 1028.82 1028.77 1028.34 1028.29 1028.00 1028.05 1027.62 1027.27 1027.18 1026.96 1026.61 1026.34 1026.11 1025.81 1025.78 1025.49 1024.64 1023.76 1022.96 1021.79 1021.32 1020.64 1020.06 1019.21 1018.71 1018.23
1023.80 1024.46 1025.11 1025.68 1026.27 1026.78 1026.92 1026.79 1027.42 1028.35 1028.60 1028.86 1028.88 1028.65 1028.44 1028.05 1028.10 1027.70 1027.56 1027.31 1027.40 1026.81 1026.39 1026.14 1025.94 1025.69 1025.41 1025.07 1024.35 1022.96 1022.70 1022.05 1020.27 1019.70 1018.87 1018.22 1017.82 1017.25
1024.23 1024.99 1025.73 1026.20 1026.75 1027.17 1027.36 1027.64 1028.12 1028.57 1028.78 1028.71 1028.77 1028.78 1028.51 1028.16 1028.10 1027.62 1027.66 1027.61 1027.56 1026.91 1026.43 1026.01 1025.75 1025.45 1024.95 1024.36 1023.36 1022.73 1021.56 1020.64 1019.98 1019.10 1018.42 1017.03 1016.47 1015.94
1024.33 1025.24 1025.86 1026.44 1026.82 1027.13 1027.45 1027.98 1028.02 1028.32 1028.53 1028.60 1028.65 1028.75 1028.78 1028.77 1028.36 1028.06 1027.90 1027.83 1027.59 1027.18 1026.69 1026.24 1025.68 1024.88 1024.04 1023.24 1022.77 1021.82 1021.19 1020.33 1019.45 1018.93 1018.29 1016.83 1014.80 1014.58
1024.24 1025.04 1025.64 1026.06 1026.33 1026.76 1027.15 1027.62 1028.21 1027.97 1028.18 1028.40 1028.51 1028.54 1028.61 1028.70 1028.78 1028.62 1028.36 1028.07 1027.71 1027.32 1026.85 1026.33 1025.80 1025.25 1024.16 1023.04 1022.20 1022.00 1021.02 1020.28 1019.11 1018.09 1017.81 1016.59 1014.75 1012.94
1024.24 1024.77 1025.25 1025.66 1026.02 1026.39 1026.84 1027.19 1027.44 1027.76 1028.07 1028.17 1028.31 1028.41 1028.55 1028.66 1028.90 1028.74 1028.59 1028.30 1027.92 1027.26 1026.58 1026.08 1025.64 1025.29 1024.75 1023.57 1022.15 1021.15 1021.17 1019.49 1019.00 1017.54 1016.59 1015.43 1013.85 1012.31
1024.13 1024.66 1024.83 1025.16 1025.42 1025.57 1026.00 1026.43 1026.91 1027.38 1027.63 1027.89 1028.08 1028.19 1028.19 1028.48 1028.99 1028.89 1028.65 1028.34 1027.82 1027.18 1026.37 1025.78 1025.38 1025.04 1024.32 1023.36 1021.89 1020.22 1019.47 1019.37 1018.66 1017.39 1016.04 1014.60 1012.42 1010.62
1023.76 1024.05 1024.25 1024.51 1024.80 1025.05 1025.49 1025.99 1026.59 1027.11 1027.40 1027.53 1027.69 1027.94 1028.09 1028.20 1028.65 1028.87 1028.66 1028.17 1027.58 1026.89 1026.07 1025.43 1024.93 1024.32 1023.83 1023.01 1021.47 1020.05 1018.49 1017.52 1017.13 1016.30 1015.25 1014.16 1012.65 1009.77
1023.21 1023.52 1023.66 1023.77 1024.05 1024.47 1024.99 1025.61 1026.08 1026.50 1026.77 1027.06 1027.38 1027.68 1027.89 1028.16 1028.10 1028.06 1027.96 1027.60 1027.08 1026.51 1025.83 1024.97 1024.45 1023.85 1023.01 1022.38 1021.36 1019.84 1018.49 1016.86 1015.62 1013.91 1012.41 1012.23 1010.68 1009.07
Wind_Speed
6 7 6 5 6 5 4 3 7 5 2 3 3 2 3 4 5 3 5 11 6 10 9 9 12 8 8 10 11 12 11 11 13 14 14 14 15 17
5 7 5 4 6 4 2 3 4 3 4 2 1 4 2 4 5 5 7 9 14 10 10 10 8 10 9 11 12 12 13 13 12 12 12 14 17 18
4 5 4 6 4 3 3 3 4 4 6 2 2 2 4 5 4 5 5 6 5 12 9 8 10 12 12 11 10 11 13 13 14 13 13 15 18 21
5 6 7 6 4 3 3 4 5 4 3 6 2 3 4 3 4 5 5 5 4 6 6 10 14 10 10 11 11 10 10 13 12 13 16 18 21 20
4 3 6 7 5 5 5 6 4 5 3 3 3 3 3 2 4 4 3 3 4 5 7 12 10 9 12 10 11 11 11 9 13 16 19 18 17 19
6 6 5 5 7 7 6 5 5 5 4 5 3 3 3 3 3 3 4 2 3 1 7 8 9 10 11 12 11 10 11 15 16 15 13 13 17 21
6 7 6 9 11 8 5 4 5 4 3 4 3 2 2 2 2 2 3 4 2 2 5 3 3 3 4 9 9 16 19 14 13 11 12 17 21 21
7 6 6 10 11 14 12 11 6 4 4 3 2 3 3 1 2 1 2 2 3 0 4 7 2 3 4 5 18 17 14 12 10 15 20 22 22 23
8 7 7 5 6 5 6 4 7 11 6 4 4 3 2 2 2 3 2 0 2 3 4 5 1 2 3 10 18 14 10 11 19 21 21 24 23 25
7 6 8 5 4 4 4 7 6 7 6 5 4 3 3 4 3 1 1 2 3 2 2 3 2 3 5 7 15 9 7 20 21 22 24 25 26 26
9 8 7 7 6 7 5 8 8 6 7 8 5 6 6 5 7 2 5 5 3 2 1 3 3 6 3 3 4 6 18 23 22 24 25 27 26 26
8 8 11 8 9 8 5 5 6 3 4 4 3 4 6 6 10 5 3 1 2 3 2 6 3 5 6 3 3 7 7 16 21 24 26 25 24 11
7 6 5 11 9 9 7 5 3 4 3 3 2 2 3 3 3 3 3 2 1 3 5 4 3 2 2 6 3 5 10 6 11 13 19 22 21 20
7 5 6 11 9 9 6 8 8 5 2 2 1 1 0 1 2 2 2 4 4 7 7 6 4 5 6 9 10 3 8 9 10 10 9 13 22 23
6 11 12 11 10 7 9 8 5 2 2 1 1 1 2 2 3 2 3 4 5 6 7 8 7 7 7 9 12 12 12 6 10 7 11 9 10 11
11 6 4 5 5 3 1 1 2 3 3 2 2 2 2 1 1 1 1 2 4 4 6 8 9 9 9 9 10 13 10 9 9 11 11 12 11 11
7 3 2 2 1 0 1 2 1 2 2 2 2 1 2 1 2 1 1 2 4 7 7 6 9 11 10 13 12 11 12 12 10 13 15 15 12 12
4 3 2 2 3 3 3 2 1 2 3 3 1 2 2 2 2 2 2 2 5 6 7 7 9 10 9 8 17 11 10 13 12 13 15 16 17 12
3 3 3 4 4 4 4 3 4 4 3 3 3 3 1 2 2 2 2 1 4 6 7 7 8 8 11 13 5 16 12 12 14 13 12 14 17 17
2 3 4 3 4 4 4 4 3 2 2 2 2 2 3 3 1 2 2 2 4 7 8 6 6 7 9 13 15 13 24 15 12 15 15 15 18 34
3 2 3 3 4 4 4 4 4 4 3 2 2 2 2 2 1 2 2 4 5 6 8 8 6 11 10 11 12 12 10 22 22 17 16 17 18 19
4 4 3 4 4 5 4 4 3 3 3 3 2 2 2 2 2 2 3 3 6 7 9 8 8 7 9 10 14 19 15 14 20 27 28 28 15 17
4 4 3 4 5 4 4 4 3 3 3 3 2 3 2 1 2 3 3 4 6 7 8 9 8 8 9 10 15 14 21 20 15 17 15 24 33 36
Wind_Direction
77 79 78 53 34 49 75 131 142 147 156 195 139 187 149 128 124 100 70 95 88 93 34 33 30 35 25 23 10 8 2 3 1 360 354 356 352 343
89 96 90 89 66 57 20 74 82 120 121 135 100 143 139 114 99 74 77 58 78 48 31 38 29 17 26 6 358 2 2 352 357 6 4 344 341 335
92 103 109 96 108 124 119 101 92 93 126 107 122 89 74 90 61 74 68 49 17 20 23 34 24 25 6 2 346 358 351 350 347 341 345 347 334 326
141 137 135 120 84 84 68 77 80 68 118 131 105 84 72 66 81 74 52 39 351 357 12 33 6 2 10 347 339 348 342 345 341 351 340 334 327 322
107 97 114 127 112 110 99 86 70 78 69 116 104 78 62 44 61 50 39 16 348 338 45 9 3 352 350 340 342 338 339 333 349 336 327 324 327 324
103 93 89 104 107 98 89 91 94 92 87 95 80 98 97 31 44 24 341 338 312 5 12 356 327 345 338 343 334 333 335 333 322 323 324 326 341 327
110 103 99 105 106 103 112 96 99 92 97 103 99 86 85 73 43 357 290 306 283 85 342 316 290 317 331 328 318 323 325 328 333 333 335 337 327 321
118 108 97 94 97 99 95 92 94 109 114 114 118 132 100 64 250 244 258 330 354 244 333 312 298 326 303 298 312 321 328 334 347 352 334 327 324 315
129 132 128 113 81 78 70 114 105 84 67 91 120 102 85 226 254 244 240 306 260 308 4 296 24 271 282 307 312 326 339 355 345 331 324 323 318 316
131 110 113 100 91 105 91 79 88 93 82 79 76 83 222 256 234 8 351 331 307 303 13 277 292 262 275 290 318 340 1 343 328 324 319 319 316 311
117 122 121 116 118 123 104 113 98 77 63 61 72 57 33 40 58 56 25 12 338 304 169 291 266 307 294 300 326 319 329 324 315 312 314 314 311 310
112 116 129 125 120 116 110 132 140 98 64 64 52 32 34 59 46 45 27 330 284 317 264 336 335 1 321 320 323 315 293 299 302 307 306 308 310 304
132 137 128 128 121 117 111 107 108 118 99 82 80 40 64 37 11 0 348 329 265 249 300 350 307 339 217 307 269 300 289 291 299 295 297 301 300 305
145 130 136 140 134 131 116 120 127 112 104 101 66 6 47 338 311 313 344 339 316 307 319 312 274 309 290 298 298 301 299 287 284 284 288 284 297 296
129 148 153 152 150 144 149 139 117 107 112 131 179 237 201 243 278 291 308 308 300 298 314 310 299 303 294 288 288 294 308 286 280 270 296 292 297 298
140 141 131 116 100 113 79 182 146 165 173 192 196 218 270 303 254 273 298 319 297 303 302 307 306 308 295 282 286 292 289 288 295 298 299 297 291 284
114 96 89 91 110 356 274 234 235 153 175 190 167 234 258 224 267 299 286 303 299 315 309 309 303 298 285 287 285 280 291 289 293 306 304 298 292 288
85 125 160 180 191 195 192 201 114 165 195 170 176 203 219 238 293 301 251 257 301 301 302 306 307 306 298 277 262 284 288 295 299 300 297 296 295 289
122 156 180 185 203 193 184 172 180 204 164 179 190 218 200 254 217 271 294 289 296 299 294 297 297 302 305 295 260 271 294 296 296 293 297 288 291 293
153 164 196 196 190 181 171 169 184 180 197 195 193 206 209 200 291 292 278 254 288 297 295 288 288 291 291 293 293 287 283 287 298 296 297 288 282 286
189 193 191 184 195 172 175 173 164 184 186 177 192 193 231 148 256 255 277 278 278 288 289 286 277 281 285 290 286 283 284 289 291 292 298 292 293 297
194 202 204 196 188 176 169 167 159 159 172 177 199 196 214 174 205 251 260 270 289 282 282 289 290 292 288 277 287 295 296 297 294 289 287 287 289 288
199 208 216 190 177 172 159 164 159 173 174 174 176 178 157 217 229 242 255 264 279 286 285 291 296 284 282 289 287 293 295 300 304 306 292 288 288 286